{"data":{"norad_id":62745,"epoch":"2026-09-21T19:00:22.205088Z","epoch_age_seconds":59636,"freshness":"FRESH","line1":"1 62745U 25014L   26264.79192367  .00015109  00000+0  55726-3 0  9993","line2":"2 62745  42.9972 126.4778 0000573  56.8093 303.2814 15.27591148 93253","mean_motion":15.27591148,"eccentricity":5.73e-5,"inclination_deg":42.9972,"raan_deg":126.4778,"arg_perigee_deg":56.8093,"mean_anomaly_deg":303.2814,"bstar":0.00055726,"rev_number":9325,"period_min":94.266060777147,"perigee_km":482.62257106961,"apogee_km":483.40885917076,"semimajor_km":6861.1527151202,"source":"CELESTRAK","updated_at":"2026-09-22T09:00:49.657965Z"}}